Location: Asheville, NC
(35.6000°N, 82.5500°W)
Time: 23:07:44

AO-73 - Pass Details

Date: 16 March 2018
Orbit: 582 x 666 km, 97.6° (Epoch: 20 March)

Event Time Altitude Azimuth Distance (km) Brightness Sun altitude
Rises 19:56:34 0° 135° (SE) 2,865 ? -4.5°
Reaches altitude 10° 19:59:09 10° 120° (ESE) 1,950 ? -5.0°
Maximum altitude 20:02:22 22° 70° (ENE) 1,334 ? -5.6°
Drops below altitude 10° 20:05:34 10° 20° (NNE) 1,927 ? -6.3°
Sets 20:08:05 0° 5° (N) 2,823 ? -6.8°
